Regional Weather Roundup
Issued by NWS Midland/Odessa, TX

Home | Current Version | Previous Version | Text Only | Print | Product List | Glossary On
Versions: 1 2 3 4 5 6 7 8 9 10 11 12 13 14 15 16 17 18 19 20 21 22 23 24 25 26 27 28 29 30 31 32 33 34 35 36 37 38 39 40 41 42 43 44 45 46 47 48 49 50
000
ASUS44 KMAF 241610
RWRMAF
MIDLAND AREA WEATHER ROUNDUP
NATIONAL WEATHER SERVICE MIDLAND TX
1100 AM CDT WED AUG 24 2016

...IN SOUTHWEST TEXAS AND SOUTHEAST NEW MEXICO...

CITY           SKY/WX    TMP DP  RH WIND       PRES   REMARKS
ALPINE         CLOUDY    68  59  71 E10       30.30F
ANDREWS        NOT AVBL
ARTESIA        MOSUNNY   68  68 100 S17       30.15F
BIG SPRING     MOSUNNY   78  66  66 SE8       30.15F
CARLSBAD       CLOUDY    67  62  84 S15       30.14F
DRYDEN           N/A     79  69  71 NE7       30.12F
FORT STOCKTON  PTSUNNY   78  58  49 E10       30.17F
GUAD PASS      NOT AVBL
HOBBS          SUNNY     66  66 100 S12       30.19R
MARFA          LGT RAIN N/A N/A N/A MISG        N/A
MIDLAND AIRPK  SUNNY     79  64  59 SE7       30.15F
MIDLAND INTL   SUNNY     78  63  59 SE6       30.15S
ODESSA         SUNNY     77  60  55 SE6       30.16S
PECOS          MOSUNNY   71  64  80 S8        30.16S
PRESIDIO       NOT AVBL
SEMINOLE       PTSUNNY   70  63  77 SW9       30.18R
SNYDER           N/A     78  67  68 S12       30.12F
WINK           PTSUNNY   70  64  81 SW7       30.15S
$$
...OTHER STATIONS IN TEXAS...

CITY           SKY/WX    TMP DP  RH WIND       PRES   REMARKS
ABILENE        PTSUNNY   81  68  64 S18       30.15F
AMARILLO       CLOUDY    73  58  59 SW9       30.13S
AUSTIN         MOSUNNY   84  75  74 SW12      30.13S
BROWNSVILLE    MOSUNNY   91  73  55 SE18      30.11R
CORPUS CHRISTI MOSUNNY   91  73  55 S12       30.10S
DALLAS FTW     MOSUNNY   85  70  60 SW15      30.12S
DEL RIO        CLOUDY    81  71  71 SE14      30.09F
EL PASO        MOSUNNY   75  63  66 S8        30.16R
HOUSTON INT    MOSUNNY   87  77  72 S7        30.14R
LUBBOCK        CLOUDY    73  61  65 S14       30.12R
SAN ANGELO     PTSUNNY   83  67  58 SW12G21   30.15F
SAN ANTONIO    MOSUNNY   82  72  71 S12       30.14F
WACO           MOSUNNY   85  72  65 S14       30.14R
WICHITA FALLS  NOT AVBL
$$
...OTHER LOCATIONS IN NEW MEXICO...

CITY           SKY/WX    TMP DP  RH WIND       PRES   REMARKS
ALAMAGORDO     CLOUDY    75  57  53 S14       30.18S
ALBUQUERQUE    CLOUDY    66  50  56 CALM      30.26R
CANNON AFB     SUNNY     73  56  54 W20       30.17S
CLOVIS         MOSUNNY   73  55  53 W18       30.17R
HOLLOMAN AFB   SUNNY     76  58  53 S14       30.16R
ROSWELL        MOSUNNY   69  63  81 S16       30.14R
RUIDOSO          N/A     64  48  55 W6        30.33S
SANTA FE       CLOUDY    63  49  60 N7        30.28S
TRUTH OR CONSE SUNNY     73  45  36 NW5       30.21S
TUCUMCARI      MOSUNNY   74  60  61 SW15      30.14S
$$




USA.gov is the U.S. government's official web portal to all federal, state and local government web resources and services.